GW2287 Weather Reports


time (UTC)temp
C
wind
direction
speed
KPH
gust
KPH
rain 1hr
cm
rain 24hr
cm
rain mn
cm
humidity
%
barometer
mb
20260906140004 20 135 3.2 6.4 0.00 0.00 0.00 88 1021.6
20260906135502 20 69 1.6 4.8 0.00 0.00 0.00 89 1021.7
20260906135002 20 50 1.6 6.4 0.00 0.00 0.00 90 1021.6
20260906134502 19 50 3.2 6.4 0.00 0.00 0.00 91 1021.6
20260906134002 19 107 3.2 6.4 0.00 0.00 0.00 92 1021.6
20260906133002 18 89 1.6 3.2 0.00 0.00 0.00 96 1021.6
20260906132506 18 138 1.6 4.8 0.00 0.00 0.00 98 1021.6
20260906132002 18 138 1.6 4.8 0.00 0.00 0.00 98 1021.5
20260906131502 18 331 0.0 3.2 0.00 0.00 0.00 99 1021.4
20260906130502 18 331 0.0 1.6 0.00 0.00 0.00 100 1021.2
20260906130004 17 331 0.0 1.6 0.00 0.00 0.00 100 1021.3
20260906125505 17 331 0.0 1.6 0.00 0.00 0.00 100 1021.3
20260906125002 17 331 0.0 1.6 0.00 0.00 0.00 99 1021.1
20260906124502 17 331 0.0 1.6 0.00 0.00 0.00 100 1021.0
20260906124002 17 331 0.0 3.2 0.00 0.00 0.00 100 1020.9
20260906123503 17 331 0.0 3.2 0.00 0.00 0.00 99 1020.8
20260906123004 16 304 0.0 0.0 0.00 0.00 0.00 99 1020.8
20260906122502 16 304 0.0 0.0 0.00 0.00 0.00 99 1020.8
20260906122003 16 304 0.0 1.6 0.00 0.00 0.00 99 1020.8
20260906121505 16 304 0.0 1.6 0.00 0.00 0.00 99 1020.8
20260906121002 16 304 0.0 0.0 0.00 0.00 0.00 99 1020.9
20260906120502 16 304 0.0 0.0 0.00 0.00 0.00 99 1020.8
20260906120004 16 304 0.0 0.0 0.00 0.00 0.00 98 1020.7
20260906115502 16 304 0.0 1.6 0.00 0.00 0.00 99 1020.5
20260906114505 16 304 0.0 0.0 0.00 0.00 0.00 98 1020.5
20260906114002 16 304 0.0 0.0 0.00 0.00 0.00 99 1020.4
20260906113502 16 304 0.0 0.0 0.00 0.00 0.00 99 1020.3
20260906113002 16 304 0.0 0.0 0.00 0.00 0.00 99 1020.2
20260906112502 16 304 0.0 0.0 0.00 0.00 0.00 99 1020.2
20260906112003 16 304 0.0 0.0 0.00 0.00 0.00 98 1020.0
20260906111003 16 304 0.0 0.0 0.00 0.00 0.00 98 1019.9
20260906110503 16 304 0.0 1.6 0.00 0.00 0.00 98 1019.9
20260906110004 16 304 0.0 1.6 0.00 0.00 0.00 98 1020.0
20260906105502 16 304 0.0 1.6 0.00 0.00 0.00 98 1020.1
20260906104002 16 304 0.0 0.0 0.00 0.00 0.00 98 1020.1
20260906103502 16 304 0.0 0.0 0.00 0.00 0.00 98 1020.1
20260906103002 16 304 0.0 0.0 0.00 0.00 0.00 98 1020.0
20260906102501 16 304 0.0 0.0 0.00 0.00 0.00 98 1019.9
20260906102002 16 304 0.0 1.6 0.00 0.00 0.00 98 1020.0
20260906101503 16 304 0.0 1.6 0.00 0.00 0.00 98 1020.0
20260906101003 16 304 0.0 0.0 0.00 0.00 0.00 98 1020.0
20260906100502 16 304 0.0 0.0 0.00 0.00 0.00 98 1019.9
20260906100004 16 304 0.0 0.0 0.00 0.00 0.00 98 1019.8
20260906095503 16 304 0.0 1.6 0.00 0.00 0.00 98 1019.7
20260906095003 16 304 0.0 1.6 0.00 0.00 0.00 98 1019.8
20260906094503 16 304 0.0 0.0 0.00 0.00 0.00 98 1019.7
20260906094003 16 304 0.0 0.0 0.00 0.00 0.00 98 1019.7
20260906093503 16 304 0.0 0.0 0.00 0.00 0.00 98 1019.8
20260906093003 16 304 0.0 0.0 0.00 0.00 0.00 98 1019.7
20260906092503 16 304 0.0 0.0 0.00 0.00 0.00 98 1019.7
20260906092002 16 304 0.0 0.0 0.00 0.00 0.00 98 1019.7
20260906091503 16 304 0.0 0.0 0.00 0.00 0.00 98 1019.7
20260906091002 16 304 0.0 1.6 0.00 0.00 0.00 98 1019.6
20260906090503 16 304 0.0 1.6 0.00 0.00 0.00 98 1019.6
20260906090004 16 304 0.0 0.0 0.00 0.00 0.00 97 1019.6
20260906085502 16 304 0.0 0.0 0.00 0.00 0.00 97 1019.7
20260906085002 16 304 0.0 0.0 0.00 0.00 0.00 97 1019.7
20260906084505 17 304 0.0 1.6 0.00 0.00 0.00 97 1019.7
20260906084002 17 304 0.0 1.6 0.00 0.00 0.00 98 1019.7
20260906083503 17 304 0.0 1.6 0.00 0.00 0.00 97 1019.6
20260906083003 17 304 0.0 1.6 0.00 0.00 0.00 98 1019.6
20260906082502 17 304 0.0 0.0 0.00 0.00 0.00 97 1019.6
20260906082004 17 304 0.0 0.0 0.00 0.00 0.00 97 1019.5
20260906081003 17 304 0.0 1.6 0.00 0.00 0.00 98 1019.5
20260906080502 17 304 0.0 1.6 0.00 0.00 0.00 98 1019.5
20260906080003 17 304 0.0 0.0 0.00 0.00 0.00 98 1019.5
20260906075502 17 304 0.0 1.6 0.00 0.00 0.00 98 1019.5
20260906075002 17 304 0.0 1.6 0.00 0.00 0.00 98 1019.5
20260906074502 17 304 0.0 1.6 0.00 0.00 0.00 98 1019.6
20260906074002 17 304 0.0 3.2 0.00 0.00 0.00 98 1019.6
20260906073502 17 72 0.0 1.6 0.00 0.00 0.00 98 1019.6
20260906073002 17 72 0.0 1.6 0.00 0.00 0.00 98 1019.4
20260906072502 17 72 0.0 1.6 0.00 0.00 0.00 98 1019.3
20260906072002 17 72 0.0 1.6 0.00 0.00 0.00 98 1019.2
20260906071502 17 72 0.0 0.0 0.00 0.00 0.00 98 1019.2
20260906070502 16 72 0.0 0.0 0.00 0.00 0.00 98 1019.2
20260906065502 16 72 0.0 0.0 0.00 0.00 0.00 98 1019.3
20260906064502 16 72 0.0 1.6 0.00 0.00 0.00 98 1019.4
20260906064001 16 72 0.0 1.6 0.00 0.00 0.00 98 1019.4
20260906063002 16 72 0.0 0.0 0.00 0.00 0.00 98 1019.6
20260906062502 16 72 0.0 0.0 0.00 0.00 0.00 98 1019.5
20260906061503 16 72 0.0 3.2 0.00 0.00 0.00 98 1019.4
20260906061001 16 72 0.0 3.2 0.00 0.00 0.00 97 1019.4
20260906060502 16 72 0.0 1.6 0.00 0.00 0.00 97 1019.2
20260906055503 16 72 0.0 3.2 0.00 0.00 0.00 97 1019.1
20260906055004 16 72 0.0 0.0 0.00 0.00 0.00 97 1019.2
20260906054504 16 72 0.0 0.0 0.00 0.00 0.00 97 1019.2
20260906054003 16 72 0.0 3.2 0.00 0.00 0.00 97 1019.2
20260906052504 17 72 0.0 1.6 0.00 0.00 0.00 97 1019.3
20260906052004 17 72 0.0 1.6 0.00 0.00 0.00 97 1019.3
20260906051504 17 72 0.0 1.6 0.00 0.00 0.00 97 1019.3
20260906051003 17 72 0.0 1.6 0.00 0.00 0.00 97 1019.2
20260906050503 17 72 0.0 0.0 0.00 0.00 0.00 97 1019.1
20260906050008 17 72 0.0 0.0 0.00 0.00 0.00 97 1019.0
20260906045503 17 72 0.0 1.6 0.00 0.00 0.00 97 1019.0
20260906044504 17 72 0.0 1.6 0.00 0.00 0.00 97 1019.1
20260906044004 17 72 0.0 1.6 0.00 0.00 0.00 97 1019.0
20260906043504 17 72 0.0 0.0 0.00 0.00 0.00 97 1019.1
20260906043004 17 72 0.0 1.6 0.00 0.00 0.00 97 1019.1
20260906042504 17 72 0.0 1.6 0.00 0.00 0.00 97 1019.1
20260906042005 17 72 0.0 1.6 0.00 0.00 0.00 96 1018.8
20260906041504 17 72 0.0 1.6 0.00 0.00 0.00 97 1018.8
20260906041005 17 72 0.0 1.6 0.00 0.00 0.00 97 1018.8
20260906040503 17 72 0.0 0.0 0.00 0.00 0.00 97 1018.7
20260906040008 17 72 0.0 0.0 0.00 0.00 0.00 96 1018.6
20260906034504 17 72 0.0 0.0 0.00 0.00 0.00 96 1018.8
20260906034004 17 72 0.0 0.0 0.00 0.00 0.00 96 1018.8
20260906033504 17 72 0.0 0.0 0.00 0.00 0.00 96 1018.8
20260906033003 17 72 0.0 0.0 0.00 0.00 0.00 96 1018.6
20260906032504 17 72 0.0 0.0 0.00 0.00 0.00 96 1018.7
20260906031503 17 72 0.0 0.0 0.00 0.00 0.00 96 1018.8
20260906031005 17 72 0.0 0.0 0.00 0.00 0.00 96 1018.8
20260906030505 17 72 0.0 0.0 0.00 0.00 0.00 95 1018.8
20260906030005 17 72 0.0 0.0 0.00 0.00 0.00 95 1018.8
20260906025504 17 72 0.0 0.0 0.00 0.00 0.00 95 1018.8
20260906025005 17 72 0.0 0.0 0.00 0.00 0.00 95 1018.8
20260906024504 17 72 0.0 0.0 0.00 0.00 0.00 95 1018.8
20260906024003 18 72 0.0 0.0 0.00 0.00 0.00 95 1018.8
20260906023504 18 72 0.0 0.0 0.00 0.00 0.00 95 1018.9
20260906023005 18 72 0.0 0.0 0.00 0.00 0.00 94 1018.7
20260906021503 18 72 0.0 0.0 0.00 0.00 0.00 94 1018.6
20260906021004 18 72 0.0 0.0 0.00 0.00 0.00 94 1018.7
20260906020505 18 72 0.0 1.6 0.00 0.00 0.00 93 1018.5
20260906020007 18 72 0.0 1.6 0.00 0.00 0.00 93 1018.5
20260906015505 18 72 0.0 0.0 0.00 0.00 0.00 93 1018.4
20260906015004 18 72 0.0 0.0 0.00 0.00 0.00 93 1018.4
20260906014504 18 72 0.0 0.0 0.00 0.00 0.00 92 1018.4
20260906014005 19 72 0.0 1.6 0.00 0.00 0.00 92 1018.4
20260906013503 19 72 0.0 1.6 0.00 0.00 0.00 92 1018.4
20260906013003 19 72 0.0 1.6 0.00 0.00 0.00 91 1018.3
20260906012504 19 72 0.0 0.0 0.00 0.00 0.00 91 1018.4
20260906012004 20 72 0.0 0.0 0.00 0.00 0.00 90 1018.4
20260906011004 20 72 0.0 0.0 0.00 0.00 0.00 89 1018.5
20260906010503 20 72 0.0 1.6 0.00 0.00 0.00 89 1018.4
20260906005503 20 72 0.0 3.2 0.00 0.00 0.00 90 1018.4
20260906005003 20 72 0.0 3.2 0.00 0.00 0.00 90 1018.3
20260906004504 21 72 0.0 3.2 0.00 0.00 0.00 91 1018.4
20260906004003 21 72 0.0 1.6 0.00 0.00 0.00 91 1018.4
20260906003003 21 72 0.0 1.6 0.00 0.00 0.00 91 1018.2
20260906002003 21 72 0.0 1.6 0.00 0.00 0.00 91 1018.4
20260906001503 21 72 0.0 0.0 0.00 0.00 0.00 91 1018.4
20260906001004 21 72 0.0 0.0 0.00 0.00 0.00 91 1018.4
20260906000504 21 72 0.0 1.6 0.00 0.00 0.00 91 1018.4
20260906000006 21 72 0.0 1.6 0.00 0.00 0.00 91 1018.4
20260905235505 21 72 0.0 1.6 0.00 0.00 0.00 91 1018.3
20260905235003 21 72 0.0 1.6 0.00 0.00 0.00 91 1018.5
20260905234504 21 72 0.0 1.6 0.00 0.00 0.00 91 1018.5
20260905234004 21 72 0.0 3.2 0.00 0.00 0.00 91 1018.6
20260905233004 21 72 0.0 1.6 0.00 0.00 0.00 91 1018.4
20260905232504 21 72 0.0 1.6 0.00 0.00 0.00 91 1018.2
20260905232003 21 72 1.6 4.8 0.00 0.00 0.00 92 1018.2
20260905231504 21 72 3.2 6.4 0.00 0.00 0.00 91 1018.2
20260905231004 21 78 1.6 6.4 0.00 0.00 0.00 91 1018.3
20260905230504 21 69 1.6 4.8 0.00 0.00 0.00 91 1018.4
20260905230006 21 69 1.6 4.8 0.00 0.00 0.00 91 1018.2
20260905225503 21 69 1.6 4.8 0.00 0.00 0.00 91 1018.3
20260905225003 21 69 1.6 4.8 0.00 0.00 0.00 91 1018.3
20260905224503 21 111 1.6 6.4 0.00 0.00 0.00 91 1018.3
20260905224004 21 111 3.2 8.0 0.00 0.00 0.00 91 1018.3
20260905223504 21 88 3.2 8.0 0.00 0.00 0.00 91 1018.2
20260905223004 21 87 3.2 8.0 0.00 0.00 0.00 91 1018.1
20260905222003 21 84 3.2 6.4 0.00 0.00 0.00 91 1018.0
20260905221503 21 94 3.2 6.4 0.00 0.00 0.00 91 1018.0
20260905221004 21 76 3.2 9.7 0.00 0.00 0.00 91 1018.0
20260905220503 22 65 3.2 9.7 0.00 0.00 0.00 90 1017.8
20260905220006 22 86 1.6 4.8 0.00 0.00 0.00 90 1017.9
20260905214504 22 88 3.2 6.4 0.00 0.00 0.00 90 1017.7
20260905214003 22 44 3.2 9.7 0.00 0.00 0.00 90 1017.7
20260905213503 22 84 1.6 9.7 0.00 0.00 0.00 89 1017.6
20260905212503 22 168 1.6 6.4 0.00 0.00 0.00 89 1017.8
20260905212005 22 69 0.0 6.4 0.00 0.00 0.00 90 1017.9
20260905211003 22 49 1.6 9.7 0.00 0.00 0.00 91 1017.8
20260905210504 22 49 3.2 9.7 0.00 0.00 0.00 90 1017.8
20260905210006 22 80 1.6 6.4 0.00 0.00 0.00 90 1017.8
20260905205503 22 65 1.6 6.4 0.00 0.00 0.00 89 1017.7
20260905205002 22 41 1.6 4.8 0.00 0.00 0.00 89 1017.7
20260905204502 22 41 1.6 4.8 0.00 0.00 0.00 90 1017.8
20260905204002 22 273 0.0 4.8 0.00 0.00 0.00 89 1017.7
20260905203503 22 273 0.0 4.8 0.00 0.00 0.00 89 1017.7
20260905203002 22 360 1.6 6.4 0.00 0.00 0.00 89 1017.6
20260905202002 23 89 1.6 4.8 0.00 0.00 0.00 89 1017.7
20260905201503 23 89 1.6 4.8 0.00 0.00 0.00 89 1017.6
20260905200503 23 63 3.2 6.4 0.00 0.00 0.00 89 1017.5
20260905195003 23 75 3.2 6.4 0.00 0.00 0.00 88 1017.7
20260905194002 23 74 3.2 6.4 0.00 0.00 0.00 87 1017.8
20260905193502 23 84 3.2 8.0 0.00 0.00 0.00 87 1017.8
20260905193002 23 59 3.2 8.0 0.00 0.00 0.00 88 1017.7
20260905192504 23 23 3.2 6.4 0.00 0.00 0.00 87 1017.7
20260905192002 23 63 3.2 8.0 0.00 0.00 0.00 87 1017.7
20260905191503 24 44 3.2 6.4 0.00 0.00 0.00 87 1017.6
20260905191003 24 117 3.2 4.8 0.00 0.00 0.00 88 1017.7
20260905190502 24 65 3.2 9.7 0.00 0.00 0.00 87 1017.7
20260905190004 23 99 4.8 9.7 0.00 0.00 0.00 88 1017.6
20260905185502 23 47 4.8 12.9 0.00 0.00 0.00 88 1017.5
20260905185002 23 57 3.2 12.9 0.00 0.00 0.00 90 1017.5
20260905184002 23 77 1.6 8.0 0.00 0.00 0.00 91 1017.7
20260905183503 23 54 1.6 6.4 0.00 0.00 0.00 90 1017.7
20260905183002 23 103 3.2 6.4 0.00 0.00 0.00 90 1017.7
20260905182003 23 66 3.2 6.4 0.00 0.00 0.00 88 1017.7
20260905181504 24 65 1.6 4.8 0.00 0.00 0.00 89 1017.5
20260905181002 24 333 1.6 6.4 0.00 0.00 0.00 88 1017.5
20260905180502 24 273 1.6 6.4 0.00 0.00 0.00 88 1017.6
20260905180006 24 273 1.6 6.4 0.00 0.00 0.00 87 1017.4
20260905175502 24 271 1.6 4.8 0.00 0.00 0.00 87 1017.5
20260905175002 24 271 1.6 4.8 0.00 0.00 0.00 87 1017.4
20260905174005 24 319 1.6 6.4 0.00 0.00 0.00 86 1017.4
20260905173503 24 109 1.6 6.4 0.00 0.00 0.00 86 1017.4
20260905173002 24 78 1.6 6.4 0.00 0.00 0.00 87 1017.5
20260905172502 24 269 1.6 4.8 0.00 0.00 0.00 86 1017.6
20260905172003 24 266 1.6 4.8 0.00 0.00 0.00 88 1017.4
20260905171002 24 128 1.6 4.8 0.00 0.00 0.00 87 1017.6
20260905170503 24 36 3.2 6.4 0.00 0.00 0.00 87 1017.5
20260905170006 23 67 1.6 6.4 0.00 0.00 0.00 88 1017.5
20260905165502 23 279 1.6 6.4 0.00 0.03 0.00 87 1017.5
20260905165003 23 160 1.6 4.8 0.00 0.03 0.00 88 1017.6
20260905164503 23 54 1.6 6.4 0.00 0.03 0.00 88 1017.6
20260905164003 23 54 1.6 6.4 0.00 0.03 0.00 87 1017.7
20260905163503 23 72 3.2 4.8 0.00 0.03 0.00 87 1017.6
20260905163003 24 31 1.6 6.4 0.00 0.03 0.00 87 1017.6
20260905162503 24 43 1.6 4.8 0.00 0.03 0.00 87 1017.6
20260905161002 24 309 1.6 6.4 0.00 0.03 0.00 87 1017.6
20260905160503 24 199 1.6 6.4 0.00 0.03 0.00 89 1017.6
20260905160004 23 202 1.6 6.4 0.00 0.03 0.00 89 1017.5
20260905155503 23 149 1.6 4.8 0.00 0.03 0.00 88 1017.6
20260905155002 23 48 1.6 4.8 0.00 0.03 0.00 89 1017.5
20260905154502 23 155 3.2 8.0 0.00 0.03 0.00 89 1017.4
20260905154003 23 69 3.2 8.0 0.00 0.03 0.00 89 1017.3
20260905153503 23 152 3.2 6.4 0.00 0.03 0.00 90 1017.3
20260905153003 23 61 1.6 6.4 0.00 0.03 0.00 91 1017.3
20260905152502 23 300 1.6 4.8 0.00 0.03 0.00 90 1017.4
20260905152004 23 98 1.6 8.0 0.00 0.03 0.00 92 1017.3
20260905151503 23 96 1.6 6.4 0.00 0.03 0.00 92 1017.2
20260905151003 23 96 3.2 6.4 0.00 0.03 0.00 92 1017.1
20260905150502 22 253 1.6 6.4 0.00 0.03 0.00 94 1017.2
20260905150005 22 279 1.6 4.8 0.00 0.03 0.00 94 1017.0
20260905145502 22 184 3.2 6.4 0.00 0.84 0.00 94 1017.1
20260905145002 22 167 3.2 6.4 0.00 0.84 0.00 94 1017.0
20260905144503 22 286 1.6 6.4 0.00 0.84 0.00 95 1016.9
20260905144003 22 135 1.6 4.8 0.00 0.84 0.00 96 1016.9
20260905143503 22 67 3.2 14.5 0.00 0.84 0.00 96 1016.8
20260905143003 22 82 1.6 6.4 0.00 0.84 0.00 96 1016.7
20260905142502 22 86 1.6 6.4 0.00 0.84 0.00 97 1016.7
20260905142002 21 42 1.6 6.4 0.00 0.84 0.00 98 1016.6
20260905141503 21 69 1.6 6.4 0.00 0.84 0.00 98 1016.6
20260905141002 21 34 1.6 4.8 0.00 0.84 0.00 98 1016.5
20260905140502 21 5 1.6 6.4 0.00 0.84 0.00 98 1016.6